TimeHST,TemperatureF,Dew PointF,Humidity,Sea Level PressureIn,VisibilityMPH,Wind Direction,Wind SpeedMPH,Gust SpeedMPH,PrecipitationIn,Events,Conditions,WindDirDegrees,DateUTC
12:07 AM,69.8,64.4,83,30.05,6.2,East,9.2,-,N/A,,Overcast,90,2013-01-24 10:07:00
12:15 AM,69.8,64.4,83,30.05,6.2,East,8.1,-,N/A,,Overcast,80,2013-01-24 10:15:00
12:57 AM,72.1,64.9,78,30.03,10.0,East,9.2,18.4,N/A,,Overcast,90,2013-01-24 10:57:00
1:57 AM,72.3,64.9,78,30.02,10.0,ESE,11.5,19.6,N/A,,Overcast,120,2013-01-24 11:57:00
2:14 AM,71.6,66.2,83,30.03,6.2,ESE,9.2,-,N/A,,Overcast,110,2013-01-24 12:14:00
2:57 AM,70.5,66.0,86,30.01,10.0,Calm,Calm,-,N/A,Rain,Heavy Rain,0,2013-01-24 12:57:00
3:12 AM,69.8,66.2,88,30.03,6.2,East,5.8,-,0.01,Rain,Light Rain,80,2013-01-24 13:12:00
3:57 AM,69.6,66.9,91,30.01,10.0,Calm,Calm,-,0.04,Rain,Light Rain,0,2013-01-24 13:57:00
4:08 AM,-9999,-9999,N/A,30.03,6.2,Calm,Calm,-,0.02,Rain,Rain,0,2013-01-24 14:08:00
4:57 AM,69.3,66.0,89,30.01,10.0,South,3.5,-,0.04,,Overcast,190,2013-01-24 14:57:00
5:55 AM,69.8,66.2,88,30.04,6.2,Calm,Calm,-,N/A,,Mostly Cloudy,0,2013-01-24 15:55:00
5:57 AM,69.3,66.0,89,30.02,-9999.0,East,6.9,-,N/A,,Mostly Cloudy,80,2013-01-24 15:57:00
6:57 AM,69.3,64.9,86,30.04,10.0,East,9.2,20.7,0.00,Rain,Light Rain,90,2013-01-24 16:57:00
7:43 AM,69.8,64.4,83,30.07,6.2,ENE,9.2,-,0.00,,Overcast,70,2013-01-24 17:43:00
7:57 AM,71.6,64.0,77,30.06,10.0,ENE,9.2,18.4,0.00,,Mostly Cloudy,70,2013-01-24 17:57:00
8:17 AM,-9999,-9999,N/A,30.07,6.2,East,9.2,18.4,N/A,,Mostly Cloudy,90,2013-01-24 18:17:00
8:57 AM,72.9,64.9,76,30.06,10.0,ENE,10.4,19.6,N/A,,Overcast,70,2013-01-24 18:57:00
9:57 AM,73.4,66.0,78,30.08,10.0,East,9.2,-,0.04,,Mostly Cloudy,80,2013-01-24 19:57:00
10:04 AM,-9999,-9999,N/A,30.10,6.2,East,8.1,17.3,0.02,Rain,Rain,80,2013-01-24 20:04:00
10:13 AM,73.4,66.2,78,30.10,6.2,NE,6.9,-,0.02,Rain,Light Rain,50,2013-01-24 20:13:00
10:57 AM,73.4,66.9,80,30.08,10.0,East,12.7,20.7,0.02,,Mostly Cloudy,90,2013-01-24 20:57:00
11:18 AM,73.4,66.2,78,30.09,6.2,East,12.7,19.6,N/A,,Overcast,90,2013-01-24 21:18:00
11:35 AM,73.4,66.2,78,30.09,6.2,East,10.4,17.3,N/A,,Overcast,100,2013-01-24 21:35:00
11:50 AM,73.4,66.2,78,30.08,6.2,ESE,9.2,18.4,N/A,,Overcast,110,2013-01-24 21:50:00
11:57 AM,73.4,66.0,78,30.06,7.0,East,10.4,17.3,N/A,,Overcast,90,2013-01-24 21:57:00
12:57 PM,73.4,64.0,72,30.04,7.0,ENE,12.7,20.7,N/A,,Mostly Cloudy,70,2013-01-24 22:57:00
1:04 PM,73.4,64.4,73,30.05,-9999.0,ENE,10.4,18.4,N/A,,Mostly Cloudy,70,2013-01-24 23:04:00
1:57 PM,73.4,64.0,72,30.02,7.0,East,10.4,18.4,N/A,,Mostly Cloudy,80,2013-01-24 23:57:00
2:57 PM,75.2,64.9,70,30.01,7.0,ESE,11.5,18.4,0.00,Rain,Light Rain,110,2013-01-25 00:57:00
3:57 PM,73.4,64.0,72,30.02,7.0,SW,9.2,-,0.00,,Mostly Cloudy,220,2013-01-25 01:57:00
4:04 PM,73.4,66.2,78,30.03,6.2,Variable,5.8,-,0.01,Rain,Light Rain,0,2013-01-25 02:04:00
4:57 PM,73.4,66.0,78,30.01,7.0,Calm,Calm,-,0.01,,Mostly Cloudy,0,2013-01-25 02:57:00
5:57 PM,73.4,66.9,80,30.01,10.0,SE,3.5,-,N/A,,Partly Cloudy,130,2013-01-25 03:57:00
6:57 PM,72.1,66.0,81,30.03,10.0,Calm,Calm,-,N/A,,Clear,0,2013-01-25 04:57:00
7:57 PM,69.6,64.9,85,30.04,10.0,Calm,Calm,-,N/A,,Clear,0,2013-01-25 05:57:00
8:57 PM,69.8,64.9,84,30.05,7.0,Calm,Calm,-,N/A,,Mostly Cloudy,0,2013-01-25 06:57:00
9:41 PM,69.8,64.4,83,30.07,-9999.0,Calm,Calm,-,N/A,,Scattered Clouds,0,2013-01-25 07:41:00
9:57 PM,69.8,64.9,84,30.06,7.0,Calm,Calm,-,N/A,,Scattered Clouds,0,2013-01-25 07:57:00
10:07 PM,69.8,68.0,94,30.08,6.2,Calm,Calm,-,N/A,,Mostly Cloudy,0,2013-01-25 08:07:00
10:40 PM,69.8,68.0,94,30.08,6.2,Calm,Calm,-,N/A,,Overcast,0,2013-01-25 08:40:00
10:57 PM,69.8,67.3,92,30.06,10.0,South,3.5,-,N/A,,Overcast,180,2013-01-25 08:57:00
11:57 PM,69.8,64.9,84,30.06,-9999.0,Calm,Calm,-,N/A,,Clear,0,2013-01-25 09:57:00